FW1313 Weather Reports


Display with metric or nautical units.
time (UTC)temp
F
wind
direction
speed
MPH
gust
MPH
rain 1hr
in
rain 24hr
in
rain mn
in
humidity
%
barometer
mb
20260831093407 60 114 0.0 0.0 0.00 0.00 0.00 50 1015.0
20260831090407 61 104 0.0 0.0 0.00 0.00 0.00 39 1015.4
20260831083407 61 112 0.0 0.0 0.00 0.00 0.00 32 1015.9
20260831080407 61 138 0.0 0.0 0.00 0.00 0.00 32 1016.6
20260831073408 61 131 0.0 0.0 0.00 0.00 0.00 29 1017.0
20260831070407 61 109 0.0 0.0 0.00 0.00 0.00 34 1017.3
20260831063408 62 156 0.0 0.0 0.00 0.00 0.00 36 1017.6
20260831060407 62 186 0.0 0.0 0.00 0.00 0.00 37 1017.9
20260831053407 62 156 0.0 0.0 0.00 0.00 0.00 40 1018.3
20260831050407 63 149 0.0 0.0 0.00 0.00 0.00 42 1018.5
20260831043411 63 134 0.0 0.0 0.00 0.00 0.00 40 1018.4
20260831040407 63 193 0.0 0.0 0.00 0.00 0.00 40 1018.0
20260831033407 63 118 0.0 0.0 0.00 0.00 0.00 46 1017.9
20260831030408 63 158 0.0 0.0 0.00 0.00 0.00 49 1017.6
20260831023408 64 126 0.0 0.0 0.00 0.00 0.00 59 1017.3
20260831020408 66 162 0.0 0.0 0.00 0.00 0.00 54 1017.3
20260831013410 68 184 0.0 0.0 0.00 0.00 0.00 53 1017.4
20260831010407 71 189 0.0 1.0 0.00 0.00 0.00 52 1017.0
20260831003407 72 159 0.0 1.0 0.00 0.00 0.00 49 1017.0
20260831000410 74 183 0.0 2.0 0.00 0.00 0.00 46 1016.7
20260830233407 75 204 0.0 1.0 0.00 0.00 0.00 42 1016.6
20260830230407 76 236 0.0 1.0 0.00 0.00 0.00 41 1016.5
20260830223407 76 156 0.0 3.0 0.00 0.00 0.00 37 1016.6
20260830220410 77 217 0.0 1.0 0.00 0.00 0.00 35 1016.7
20260830213407 78 191 0.0 0.0 0.00 0.00 0.00 36 1016.7
20260830210410 79 152 0.0 1.0 0.00 0.00 0.00 32 1016.6
20260830203407 81 190 0.0 2.0 0.00 0.00 0.00 31 1016.4
20260830200407 81 148 0.0 1.0 0.00 0.00 0.00 33 1016.2
20260830193407 79 129 0.0 1.0 0.00 0.00 0.00 28 1016.1
20260830190407 79 146 0.0 0.0 0.00 0.00 0.00 33 1016.0
20260830183407 79 162 0.0 0.0 0.00 0.00 0.00 37 1015.9
20260830180407 79 222 0.0 0.0 0.00 0.00 0.00 34 1015.5
20260830173407 77 152 0.0 0.0 0.00 0.00 0.00 38 1015.4
20260830170407 73 173 0.0 0.0 0.00 0.00 0.00 41 1015.2
20260830163407 69 128 0.0 2.0 0.00 0.00 0.00 44 1015.0
20260830160410 68 114 0.0 0.0 0.00 0.00 0.00 47 1014.8
20260830153407 66 113 0.0 0.0 0.00 0.00 0.00 49 1014.7
20260830150407 64 101 0.0 1.0 0.00 0.00 0.00 51 1014.7
20260830143407 64 97 0.0 0.0 0.00 0.00 0.00 52 1014.6
20260830140410 64 98 0.0 0.0 0.00 0.00 0.00 52 1014.4
20260830133410 63 104 0.0 0.0 0.00 0.00 0.00 54 1014.4
20260830130407 63 106 0.0 0.0 0.00 0.00 0.00 56 1014.3
20260830123407 63 121 0.0 0.0 0.00 0.00 0.00 55 1014.3
20260830120407 63 102 0.0 0.0 0.00 0.00 0.00 57 1014.4
20260830113407 63 104 0.0 0.0 0.00 0.00 0.00 58 1014.7
20260830110407 63 119 0.0 0.0 0.00 0.00 0.00 58 1015.0
20260830103407 63 114 0.0 0.0 0.00 0.00 0.00 59 1015.2
20260830100407 62 124 0.0 0.0 0.00 0.00 0.00 59 1015.6